Detroit Lakes, MN

2:48 AM CDT on July 26, 2016 (GMT -0500)
Detroit Lakes

Weather History for KDTL - November, 2013

Change the Weather History Date:

Friday, November 22, 2013

  Actual Average Record
Temperature  
Mean Temperature 10 °F -  
Max Temperature 19 °F 30 °F 55 °F (2006)
Min Temperature 0 °F 15 °F -13 °F (1935)
Degree Days  
Heating Degree Days 56    
Moisture  
Dew Point 6 °F    
Average Humidity 81    
Maximum Humidity 92    
Minimum Humidity 67    
Precipitation  
Precipitation 0.00 in - - ()
Sea Level Pressure  
Sea Level Pressure 30.54 in    
Wind  
Wind Speed 9 mph (WNW)    
Max Wind Speed 18 mph    
Max Gust Speed 25 mph    
Visibility 9 miles    
Events Snow    
Averages and records for this station are not official NWS values.
T = Trace of Precipitation, MM = Missing Value Source: NWS Daily Summary

Daily Weather History Graph

Daily Weather History Graph

Search for Another Location

Airport or City:

Trip Planner

Search our weather history database for the weather conditions in past years. The results will help you decide how hot, cold, wet, or windy it might be!

Date:

Astronomy

Nov. 22, 2013 Rise Set
Actual Time 7:36 AM CST 4:42 PM CST
Civil Twilight 7:02 AM CST 5:16 PM CST
Nautical Twilight 6:25 AM CST 5:53 PM CST
Astronomical Twilight 5:49 AM CST 6:29 PM CST
Moon 9:20 PM CST (11/22) 11:16 AM CST (11/22)
Length of Visible Light 10h 13m
Length of Day
9h 05m
Waning Gibbous, 78% of the Moon is Illuminated
Nov 22
Waning Gibbous
Nov 25
Last Quarter
Dec 2
New
Dec 9
First Quarter
Dec 17
Full

Hourly Weather History & Observations

Time (CST) Temp. Windchill Dew Point Humidity Pressure Visibility Wind Dir Wind Speed Gust Speed Precip Events Conditions
12:15 AM 8.6 °F 2.0 °F 5.0 °F 85% 30.56 in 10.0 mi West 3.5 mph - N/A   Clear
12:35 AM 8.6 °F 2.0 °F 5.0 °F 85% 30.55 in 10.0 mi West 3.5 mph - N/A   Clear
12:55 AM 8.6 °F 2.0 °F 5.0 °F 85% 30.54 in 10.0 mi West 3.5 mph - N/A   Clear
1:15 AM 8.6 °F - 5.0 °F 85% 30.53 in 10.0 mi Calm Calm - N/A   Clear
1:35 AM 8.6 °F 2.0 °F 5.0 °F 85% 30.52 in 10.0 mi SSW 3.5 mph - N/A   Clear
1:55 AM 8.6 °F 0.1 °F 5.0 °F 85% 30.51 in 10.0 mi SSW 4.6 mph - N/A   Clear
2:15 AM 8.6 °F -1.3 °F 5.0 °F 85% 30.51 in 10.0 mi SW 5.8 mph - N/A   Clear
2:35 AM 6.8 °F -0.1 °F 5.0 °F 92% 30.51 in 10.0 mi SSW 3.5 mph - N/A   Clear
2:55 AM 8.6 °F 2.0 °F 5.0 °F 85% 30.51 in 10.0 mi SSW 3.5 mph - N/A   Clear
3:15 AM 8.6 °F -1.3 °F 5.0 °F 85% 30.51 in 10.0 mi SSW 5.8 mph - N/A   Clear
3:35 AM 8.6 °F -2.6 °F 5.0 °F 85% 30.50 in 10.0 mi SW 6.9 mph - N/A   Clear
3:55 AM 8.6 °F -1.3 °F 5.0 °F 85% 30.49 in 10.0 mi SSW 5.8 mph - N/A   Clear
4:15 AM 8.6 °F -4.7 °F 5.0 °F 85% 30.48 in 10.0 mi SSW 9.2 mph - N/A   Clear
4:35 AM 10.4 °F -2.4 °F 5.0 °F 79% 30.47 in 10.0 mi SSW 9.2 mph - N/A   Clear
4:55 AM 10.4 °F -4.1 °F 3.2 °F 73% 30.46 in 10.0 mi SSW 11.5 mph 17.3 mph N/A   Clear
5:15 AM 12.2 °F -3.1 °F 3.2 °F 67% 30.45 in 10.0 mi SSW 13.8 mph - N/A   Clear
5:35 AM 12.2 °F -4.3 °F 3.2 °F 67% 30.44 in 10.0 mi SSW 16.1 mph - N/A   Clear
5:55 AM 12.2 °F -3.7 °F 5.0 °F 73% 30.43 in 10.0 mi SSW 15.0 mph 20.7 mph N/A   Clear
6:15 AM 12.2 °F -2.5 °F 5.0 °F 73% 30.43 in 10.0 mi SW 12.7 mph 19.6 mph N/A   Clear
6:35 AM 12.2 °F -1.0 °F 5.0 °F 73% 30.44 in 10.0 mi WSW 10.4 mph 18.4 mph N/A   Clear
6:55 AM 12.2 °F 0.7 °F 5.0 °F 73% 30.44 in 10.0 mi SW 8.1 mph - N/A   Clear
7:15 AM 12.2 °F 0.7 °F 5.0 °F 73% 30.44 in 10.0 mi SW 8.1 mph - N/A   Clear
7:35 AM 12.2 °F 1.7 °F 5.0 °F 73% 30.44 in 10.0 mi WSW 6.9 mph - N/A   Clear
7:55 AM 14.0 °F 2.9 °F 6.8 °F 73% 30.44 in 10.0 mi WSW 8.1 mph - N/A   Clear
8:15 AM 15.8 °F 2.7 °F 8.6 °F 73% 30.43 in 10.0 mi WSW 11.5 mph - N/A   Clear
8:35 AM 14.0 °F -0.2 °F 8.6 °F 79% 30.44 in 10.0 mi West 12.7 mph - N/A   Clear
8:55 AM 15.8 °F 2.1 °F 8.6 °F 73% 30.44 in 10.0 mi WSW 12.7 mph - N/A   Clear
9:15 AM 15.8 °F 4.2 °F 8.6 °F 73% 30.44 in 10.0 mi West 9.2 mph - N/A   Clear
9:35 AM 17.6 °F 5.7 °F 10.4 °F 73% 30.45 in 10.0 mi West 10.4 mph - N/A   Clear
9:55 AM 17.6 °F 6.4 °F 10.4 °F 73% 30.45 in 10.0 mi West 9.2 mph 18.4 mph N/A   Clear
10:15 AM 17.6 °F 7.3 °F 10.4 °F 73% 30.44 in 10.0 mi West 8.1 mph - N/A   Clear
10:35 AM 17.6 °F 4.3 °F 10.4 °F 73% 30.46 in 10.0 mi NW 12.7 mph 17.3 mph N/A   Clear
10:55 AM 19.4 °F 6.0 °F 12.2 °F 74% 30.46 in 10.0 mi NW 13.8 mph 18.4 mph N/A   Clear
11:15 AM 19.4 °F 6.0 °F 12.2 °F 74% 30.46 in 10.0 mi NW 13.8 mph - N/A   Clear
11:35 AM 19.4 °F 5.5 °F 14.0 °F 80% 30.47 in 4.0 mi NW 15.0 mph - N/A Snow Light Snow
11:55 AM 19.4 °F 5.5 °F 14.0 °F 80% 30.47 in 3.0 mi WNW 15.0 mph - N/A Snow Light Snow
12:15 PM 19.4 °F 7.2 °F 14.0 °F 80% 30.48 in 1.2 mi NW 11.5 mph - N/A Snow Light Snow
12:35 PM 19.4 °F 6.0 °F 14.0 °F 80% 30.48 in 1.2 mi NW 13.8 mph - N/A Snow Light Snow
12:55 PM 19.4 °F 7.9 °F 15.8 °F 86% 30.48 in 1.8 mi NW 10.4 mph 20.7 mph N/A Snow Light Snow
1:15 PM 19.4 °F 4.5 °F 14.0 °F 80% 30.48 in 2.0 mi NW 17.3 mph - N/A Snow Light Snow
1:35 PM 19.4 °F 5.5 °F 14.0 °F 80% 30.49 in 7.0 mi NNW 15.0 mph - N/A Snow Light Snow
1:55 PM 19.4 °F 4.1 °F 15.8 °F 86% 30.49 in 1.5 mi NW 18.4 mph 23.0 mph N/A Snow Light Snow
2:15 PM 17.6 °F 1.7 °F 14.0 °F 86% 30.50 in 3.0 mi NNW 18.4 mph 25.3 mph N/A Snow Light Snow
2:35 PM 15.8 °F -0.6 °F 12.2 °F 86% 30.51 in 3.0 mi NNW 18.4 mph - N/A Snow Light Snow
2:55 PM 14.0 °F -2.0 °F 8.6 °F 79% 30.52 in 10.0 mi NNW 16.1 mph 24.2 mph N/A   Overcast
3:14 PM 14.0 °F -2.0 °F 6.8 °F 73% 30.53 in 10.0 mi NW 16.1 mph 23.0 mph N/A   Scattered Clouds
3:35 PM 14.0 °F -3.0 °F 5.0 °F 67% 30.53 in 10.0 mi NNW 18.4 mph 25.3 mph N/A   Clear
3:55 PM 12.2 °F -3.7 °F 5.0 °F 73% 30.54 in 10.0 mi NW 15.0 mph 21.9 mph N/A   Clear
4:14 PM 12.2 °F -4.8 °F 5.0 °F 73% 30.56 in 10.0 mi NW 17.3 mph 20.7 mph N/A   Clear
4:35 PM 10.4 °F -6.6 °F 5.0 °F 79% 30.56 in 10.0 mi NNW 16.1 mph - N/A   Clear
4:55 PM 8.6 °F -6.3 °F 5.0 °F 85% 30.58 in 10.0 mi NNW 11.5 mph 18.4 mph N/A   Scattered Clouds
5:14 PM 8.6 °F -8.9 °F 5.0 °F 85% 30.58 in 10.0 mi NNW 16.1 mph - N/A   Scattered Clouds
5:35 PM 8.6 °F -5.5 °F 3.2 °F 79% 30.59 in 10.0 mi NNW 10.4 mph - N/A   Clear
5:55 PM 6.8 °F -10.0 °F 3.2 °F 85% 30.60 in 5.0 mi NNW 13.8 mph - N/A Snow Light Snow
6:15 PM 6.8 °F -11.3 °F 3.2 °F 85% 30.61 in 10.0 mi North 16.1 mph 19.6 mph N/A   Scattered Clouds
6:35 PM 5.0 °F -13.6 °F 3.2 °F 92% 30.62 in 10.0 mi NNW 16.1 mph 19.6 mph N/A   Clear
6:55 PM 5.0 °F -14.7 °F 3.2 °F 92% 30.63 in 10.0 mi NNW 18.4 mph 24.2 mph N/A   Mostly Cloudy
7:15 PM 5.0 °F -12.3 °F 3.2 °F 92% 30.64 in 10.0 mi NNW 13.8 mph - N/A   Overcast
7:35 PM 5.0 °F -13.6 °F 3.2 °F 92% 30.65 in 10.0 mi NNW 16.1 mph 23.0 mph N/A   Mostly Cloudy
7:55 PM 5.0 °F -14.2 °F 1.4 °F 85% 30.66 in 10.0 mi NNW 17.3 mph 24.2 mph N/A   Mostly Cloudy
8:15 PM 3.2 °F -13.9 °F 1.4 °F 92% 30.67 in 10.0 mi NNW 12.7 mph 18.4 mph N/A   Scattered Clouds
8:35 PM 3.2 °F -12.2 °F 1.4 °F 92% 30.68 in 7.0 mi NNW 10.4 mph - N/A Snow Light Snow
8:55 PM 3.2 °F -12.2 °F -0.4 °F 85% 30.68 in 5.0 mi NNW 10.4 mph - N/A Snow Light Snow
9:15 PM 3.2 °F -12.2 °F -0.4 °F 85% 30.68 in 7.0 mi NNW 10.4 mph - N/A Snow Light Snow
9:35 PM 1.4 °F -15.3 °F -0.4 °F 92% 30.68 in 7.0 mi NNW 11.5 mph - N/A Snow Light Snow
9:55 PM 1.4 °F -14.5 °F -0.4 °F 92% 30.68 in 10.0 mi NNW 10.4 mph - N/A Snow Light Snow
10:15 PM 1.4 °F -11.3 °F -2.2 °F 85% 30.69 in 7.0 mi NNW 6.9 mph - N/A Snow Light Snow
10:35 PM 1.4 °F -11.3 °F -2.2 °F 85% 30.70 in 10.0 mi NW 6.9 mph - N/A Snow Light Snow
10:55 PM -0.4 °F -13.4 °F -4.0 °F 85% 30.71 in 10.0 mi NW 6.9 mph - N/A   Clear
11:15 PM 1.4 °F -12.5 °F -2.2 °F 85% 30.73 in 10.0 mi NW 8.1 mph - N/A   Clear
11:35 PM -0.4 °F -16.7 °F -4.0 °F 85% 30.73 in - NW 10.4 mph - N/A   Unknown
11:55 PM -0.4 °F -16.7 °F -4.0 °F 85% 30.73 in - NW 10.4 mph - N/A   Unknown